Regional Weather Roundup
Issued by NWS

Home | Current Version | Previous Version | Graphics & Text | Print | Product List | Glossary On
Versions: 1 2 3 4 5 6 7 8 9 10 11 12 13 14 15 16 17 18 19 20 21 22 23 24 25 26 27 28 29 30 31 32 33 34 35 36 37 38 39 40 41 42 43 44 45 46 47 48 49 50
000
ASUS43 KDTX 251810
RWRMI
MICHIGAN HOURLY REGIONAL WEATHER ROUNDUP
NATIONAL WEATHER SERVICE DETROIT/PONTIAC MI
100 PM EST TUE NOV 25 2014

NOTE: "FAIR" INDICATES FEW OR NO CLOUDS BELOW 12,000 FEET WITH NO
SIGNIFICANT WEATHER AND/OR OBSTRUCTION TO VISIBILITY.

MIZ047>049-052>055-059>063-066>070-074>076-081>083-251900-
SOUTHEAST LOWER MICHIGAN

CITY           SKY/WX    TMP DP  RH WIND       PRES   REMARKS
ADRIAN         CLOUDY    29  21  72 W13       30.05R
6HR MIN TEMP:  29; 6HR MAX TEMP:  30;

ALMA           PTSUNNY   32  24  74 W15       29.96R
6HR MIN TEMP:  29; 6HR MAX TEMP:  33;

ANN ARBOR      CLOUDY    31  21  66 W18G24    30.01R
BAD AXE        CLOUDY    32  27  80 W13G20    29.91R
6HR MIN TEMP:  30; 6HR MAX TEMP:  33;

DETROIT CITY   CLOUDY    34  21  59 W17G24    30.01R
6HR MIN TEMP:  33; 6HR MAX TEMP:  34;

DETROIT        CLOUDY    33  24  69 SW17      30.03R
6HR MIN TEMP:  31; 6HR MAX TEMP:  33;

FLINT          CLOUDY    33  25  72 W13       29.97R
6HR MIN TEMP:  31; 6HR MAX TEMP:  33; 6HR PCP: TRACE;

GROSSE ILE     CLOUDY    32  25  74 W14G22    30.02R
HILLSDALE      CLOUDY    28  23  81 W13       30.02S
6HR MIN TEMP:  27; 6HR MAX TEMP:  29;

HOWELL         CLOUDY    30  24  77 SW16G22   29.98R
6HR MIN TEMP:  29; 6HR MAX TEMP:  31;


CITY           SKY/WX    TMP DP  RH WIND       PRES   REMARKS
JACKSON        CLOUDY    28  22  78 W10       30.01R
6HR MIN TEMP:  28; 6HR MAX TEMP:  29; 6HR PCP: TRACE;

LAMBERTVILLE   CLOUDY    32  25  74 W15G22    30.05S
LANSING        FLURRIES  31  23  72 W18       29.99R
6HR MIN TEMP:  29; 6HR MAX TEMP:  31; 6HR PCP: TRACE;

LAPEER         NOT AVBL
MASON          CLOUDY    30  25  79 SW14G20   30.00R
MONROE         CLOUDY    30  25  80 W18       30.02S
MT. CLEMENS    CLOUDY    33  25  73 SW10G20   29.97R
6HR MIN TEMP:  31; 6HR MAX TEMP:  33; 6HR PCP: TRACE;

PONTIAC        CLOUDY    31  21  66 W16G22    29.97R
6HR MIN TEMP:  29; 6HR MAX TEMP:  31; 6HR PCP: TRACE;

PORT HOPE        N/A     34  24  67 W15G30    29.87R
6HR MIN TEMP:  31; 6HR MAX TEMP:  34;

PORT HURON     CLOUDY    32  23  69 SW13G20   29.98R
TRI CITIES     CLOUDY    35  24  64 W17G28    29.94R
6HR MIN TEMP:  31; 6HR MAX TEMP:  36; 6HR PCP:  0.02;

YPSILANTI      CLOUDY    35  22  58 SW16      30.02R
6HR MIN TEMP:  34; 6HR MAX TEMP:  35;

$$
MIZ043>046-050>051-056>058-064>065-071>073-077>080-251900-
SOUTHWEST LOWER MICHIGAN

CITY           SKY/WX    TMP DP  RH WIND       PRES   REMARKS
BATTLE CREEK   CLOUDY    29  23  78 W13       30.02R
6HR MIN TEMP:  28; 6HR MAX TEMP:  29; 6HR PCP: TRACE;

BENTON HARBOR  CLOUDY    28  21  75 W14       30.07R
6HR MIN TEMP:  26; 6HR MAX TEMP:  28; 6HR PCP: TRACE;

BIG RAPIDS     CLOUDY    32  28  83 W10G16    29.94R
6HR MIN TEMP:  28; 6HR MAX TEMP:  32;

COLDWATER      CLOUDY    28  23  81 W14       30.04S
6HR MIN TEMP:  28; 6HR MAX TEMP:  30;

HOLLAND        CLOUDY    32  22  66 W15       30.03R
6HR MIN TEMP:  31; 6HR MAX TEMP:  32; 6HR PCP:  0.02;

GRAND RAPIDS   FLURRIES  31  23  72 W16       30.00R
6HR MIN TEMP:  29; 6HR MAX TEMP:  31; 6HR PCP:  0.03;

KALAMAZOO      CLOUDY    29  23  78 W12       30.04R
6HR MIN TEMP:  27; 6HR MAX TEMP:  29; 6HR PCP: TRACE;

MARSHALL       CLOUDY    26  24  90 SW13      30.02R FOG
MUSKEGON       FLURRIES  31  21  66 NW12      30.01R
6HR MIN TEMP:  30; 6HR MAX TEMP:  31; 6HR PCP:  0.01;

$$
MIZ016>042-251900-
NORTHERN LOWER MICHIGAN

CITY           SKY/WX    TMP DP  RH WIND       PRES   REMARKS
ALPENA         CLOUDY    29  26  89 NW9       29.85R FOG
6HR MIN TEMP:  28; 6HR MAX TEMP:  29; 6HR PCP:  0.02;

BEAVER ISLAND  CLOUDY    31  24  74 W9G17     29.89R
6HR MIN TEMP:  28; 6HR MAX TEMP:  31;

BELLAIRE       LGT SNOW  31  26  82 W10G17    29.92R
CADILLAC       LGT SNOW  28  24  84 W10G17    29.89R
CHARLEVOIX     LGT SNOW  28  26  92 W16G23    29.92R VSB 1
6HR MIN TEMP:  28; 6HR MAX TEMP:  29;

FRANKFORT      CLOUDY    29  25  84 NW10G17   29.95R
GAYLORD        LGT SNOW  26  21  81 NW10G20   29.84R
6HR MIN TEMP:  26; 6HR MAX TEMP:  27; 6HR PCP:  0.03;

GRAYLING       PTSUNNY   29  25  85 W10G23    29.87R
HARBOR SPRINGS LGT SNOW  29  25  83 W7G16     29.88R
HOUGHTON LAKE  PTSUNNY   29  22  75 W14G23    29.89R
6HR MIN TEMP:  28; 6HR MAX TEMP:  29; 6HR PCP: TRACE;

MANISTEE       CLOUDY    28  23  80 NW13      29.97R
OSCODA         FLURRIES  32  28  85 W17       29.86R
PELLSTON       LGT SNOW  28  23  81 W13       29.88R
6HR MIN TEMP:  26; 6HR MAX TEMP:  28; 6HR PCP:  0.05;

TRAVERSE CITY  LGT SNOW  30  25  81 W12       29.93R
6HR MIN TEMP:  29; 6HR MAX TEMP:  31; 6HR PCP: TRACE;

$$
MIZ007>008-015-251900-
EASTERN UPPER MICHIGAN

CITY           SKY/WX    TMP DP  RH WIND       PRES   REMARKS
KINROSS        CLOUDY    27  25  93 NW3       29.83R
6HR MIN TEMP:  23; 6HR MAX TEMP:  27; 6HR PCP:  0.02;

MACKINAC ISLAN LGT SNOW  27  25  93 W8        29.85R
6HR MIN TEMP:  26; 6HR MAX TEMP:  27; 6HR PCP:  0.03;

NEWBERRY       LGT SNOW  27  22  82 NW9       29.85R
6HR MIN TEMP:  24; 6HR MAX TEMP:  27; 6HR PCP:  0.05;

S. S. MARIE    LGT SNOW  24  18  77 NW6       29.81R
6HR MIN TEMP:  23; 6HR MAX TEMP:  24; 6HR PCP:  0.07;

$$
MIZ004>006-011>014-085-251900-
CENTRAL UPPER MICHIGAN

CITY           SKY/WX    TMP DP  RH WIND       PRES   REMARKS
MANISTIQUE       N/A    N/A N/A N/A MISG        N/A
ESCANABA       MOSUNNY   27  14  59 NW13      29.94R
6HR MIN TEMP:  25; 6HR MAX TEMP:  27;

MENOMINEE      CLOUDY    27  16  63 W5        29.97R
6HR MIN TEMP:  25; 6HR MAX TEMP:  27;

SAWYER-GWINN   LGT SNOW  23  16  74 W8        29.90R
$$
MIZ001>003-009>011-084-251900-
WESTERN UPPER MICHIGAN

CITY           SKY/WX    TMP DP  RH WIND       PRES   REMARKS
IRON MOUNTAIN  CLOUDY    22  13  68 NW13      29.93R
6HR MIN TEMP:  21; 6HR MAX TEMP:  22; 6HR PCP: TRACE;

HOUGHTON       LGT SNOW  20  10  65 W14       29.92R
6HR MIN TEMP:  19; 6HR MAX TEMP:  21; 6HR PCP: TRACE;

COPPER HARBOR    N/A     26  19  74 N15       29.93R
6HR MIN TEMP:  25; 6HR MAX TEMP:  26;

IRONWOOD       CLOUDY    18  14  86 W10       29.95S
6HR MIN TEMP:  16; 6HR MAX TEMP:  19;

$$

ABBREVIATIONS USED IN REMARKS
   TC - TEMPERATURE IN CELSIUS
  WCI - WIND CHILL INDEX
   HX - HEAT INDEX
  VSB - VISIBILITY




USA.gov is the U.S. government's official web portal to all federal, state and local government web resources and services.